Location: doobydoo
(53.3403°N, 2.6908°W)
Time: 19:39:59
(UTC+00:00)

ISS - Pass Details

Date: 27 November 2021
Orbit: 413 x 422 km, 51.6° (Epoch: 18 January)

Event Time Altitude Azimuth Distance (km) Brightness Sun altitude
Rises 19:03:29 0° 270° (W) 2,384 1.4 -26.5°
Reaches altitude 10° 19:05:36 10° 268° (W) 1,516 0.1 -26.8°
Enters shadow 19:07:10 25° 261° (W) 909 -1.4 -27.1°
